When you browse on this site, cookies collect data to enhance your experience and personalize the content and advertising you see.
Visit our Privacy Policy to learn more. By continuing to use the site, you agree to this use of cookies and data.
EN

Hourly Weather Santiago

Today, 13 July, Monday

Time Temperature Precipitation Wind Pressure Humidity
00:00 +26°C° 0.1 mm 1 mps 749 mmHg 91%
01:00 +26°C° 0.1 mm 1 mps 749 mmHg 91%
02:00 +26°C° 0 mm 1 mps 749 mmHg 92%
03:00 +25°C° 0 mm 1 mps 749 mmHg 92%
04:00 +25°C° 0 mm 1 mps 748 mmHg 93%
05:00 +25°C° 0 mm 1 mps 749 mmHg 92%
06:00 +26°C° 0 mm 1 mps 749 mmHg 92%
07:00 +26°C° 0 mm 1 mps 750 mmHg 91%
08:00 +27°C° 0.1 mm 1 mps 750 mmHg 86%
09:00 +29°C° 0.1 mm 1 mps 750 mmHg 80%
10:00 +30°C° 0.1 mm 1 mps 750 mmHg 74%
11:00 +31°C° 0.4 mm 1 mps 750 mmHg 71%
12:00 +32°C° 0.4 mm 1 mps 750 mmHg 69%
13:00 +33°C° 0.4 mm 1 mps 749 mmHg 66%
14:00 +32°C° 2 mm 1 mps 749 mmHg 69%
15:00 +32°C° 2 mm 2 mps 748 mmHg 72%
16:00 +31°C° 2 mm 2 mps 747 mmHg 75%
17:00 +30°C° 1.9 mm 2 mps 748 mmHg 80%
18:00 +29°C° 1.9 mm 2 mps 748 mmHg 85%
19:00 +27°C° 1.9 mm 2 mps 748 mmHg 89%
20:00 +27°C° 0.2 mm 2 mps 748 mmHg 90%
21:00 +27°C° 0.2 mm 1 mps 749 mmHg 91%
22:00 +26°C° 0.2 mm 1 mps 749 mmHg 92%
23:00 +26°C° 0 mm 1 mps 749 mmHg 92%

Tomorrow, 14 July, Tuesday

Time Temperature Precipitation Wind Pressure Humidity
00:00 +26°C° 0 mm 1 mps 749 mmHg 92%
01:00 +26°C° 0 mm 1 mps 749 mmHg 92%
02:00 +26°C° 0 mm 1 mps 748 mmHg 92%
03:00 +25°C° 0 mm 1 mps 748 mmHg 92%
04:00 +25°C° 0 mm 1 mps 747 mmHg 92%
05:00 +26°C° 0 mm 1 mps 748 mmHg 92%
06:00 +26°C° 0 mm 1 mps 748 mmHg 91%
07:00 +26°C° 0 mm 1 mps 748 mmHg 90%
08:00 +27°C° 0.1 mm 1 mps 749 mmHg 85%
09:00 +29°C° 0.1 mm 1 mps 749 mmHg 79%
10:00 +30°C° 0.1 mm 1 mps 749 mmHg 74%
11:00 +31°C° 0.9 mm 1 mps 749 mmHg 71%
12:00 +31°C° 0.9 mm 1 mps 749 mmHg 69%
13:00 +32°C° 0.9 mm 2 mps 748 mmHg 67%
14:00 +31°C° 1 mm 2 mps 748 mmHg 71%
15:00 +31°C° 1 mm 3 mps 747 mmHg 75%
16:00 +30°C° 1 mm 3 mps 746 mmHg 80%
17:00 +29°C° 0 mm 3 mps 747 mmHg 83%
18:00 +28°C° 0 mm 3 mps 747 mmHg 86%
19:00 +27°C° 0 mm 3 mps 747 mmHg 89%
20:00 +27°C° 0.1 mm 2 mps 748 mmHg 89%
21:00 +27°C° 0.1 mm 2 mps 748 mmHg 90%
22:00 +27°C° 0.1 mm 1 mps 749 mmHg 90%
23:00 +27°C° 0.1 mm 1 mps 749 mmHg 90%

Day after tomorrow, 15 July, Wednesday

Time Temperature Precipitation Wind Pressure Humidity
00:00 +26°C° 0.1 mm 1 mps 749 mmHg 91%
01:00 +26°C° 0.1 mm 1 mps 748 mmHg 91%
02:00 +26°C° 0.4 mm 1 mps 748 mmHg 92%
03:00 +24°C° 0.4 mm 0 mps 748 mmHg 92%
04:00 +23°C° 0.4 mm 0 mps 747 mmHg 92%
05:00 +24°C° 0.5 mm 0 mps 747 mmHg 92%
06:00 +26°C° 0.5 mm 1 mps 748 mmHg 92%
07:00 +26°C° 0.5 mm 1 mps 748 mmHg 92%
08:00 +27°C° 0.7 mm 1 mps 748 mmHg 87%
09:00 +28°C° 0.7 mm 1 mps 749 mmHg 83%
10:00 +29°C° 0.7 mm 1 mps 749 mmHg 78%
11:00 +30°C° 1.7 mm 1 mps 749 mmHg 76%
12:00 +30°C° 1.7 mm 1 mps 748 mmHg 75%
13:00 +31°C° 1.7 mm 1 mps 748 mmHg 73%
14:00 +30°C° 1.5 mm 2 mps 748 mmHg 77%
15:00 +29°C° 1.5 mm 3 mps 747 mmHg 81%
16:00 +29°C° 1.5 mm 4 mps 747 mmHg 84%
17:00 +28°C° 1.7 mm 4 mps 747 mmHg 87%
18:00 +27°C° 1.7 mm 3 mps 747 mmHg 90%
19:00 +26°C° 1.7 mm 3 mps 747 mmHg 92%
20:00 +26°C° 0.1 mm 2 mps 748 mmHg 93%
21:00 +26°C° 0.1 mm 2 mps 748 mmHg 93%
22:00 +26°C° 0.1 mm 1 mps 749 mmHg 94%
23:00 +26°C° 0 mm 1 mps 749 mmHg 93%

16 July, Thursday

Time Temperature Precipitation Wind Pressure Humidity
00:00 +26°C° 0 mm 1 mps 748 mmHg 93%
01:00 +25°C° 0 mm 1 mps 748 mmHg 93%
02:00 +25°C° 0 mm 1 mps 748 mmHg 92%
03:00 +23°C° 0 mm 0 mps 748 mmHg 92%
04:00 +23°C° 0 mm 0 mps 747 mmHg 92%
05:00 +23°C° 0 mm 0 mps 748 mmHg 91%
06:00 +24°C° 0 mm 0 mps 748 mmHg 91%
07:00 +24°C° 0 mm 0 mps 748 mmHg 90%
08:00 +25°C° 0 mm 0 mps 749 mmHg 87%
09:00 +27°C° 0 mm 1 mps 749 mmHg 84%
10:00 +28°C° 0 mm 1 mps 750 mmHg 80%
11:00 +29°C° 0.1 mm 1 mps 750 mmHg 77%
12:00 +29°C° 0.1 mm 1 mps 749 mmHg 75%
13:00 +30°C° 0.1 mm 1 mps 749 mmHg 72%
14:00 +29°C° 1.2 mm 1 mps 749 mmHg 76%
15:00 +28°C° 1.2 mm 1 mps 749 mmHg 80%
16:00 +28°C° 1.2 mm 2 mps 748 mmHg 85%
17:00 +27°C° 0.3 mm 2 mps 748 mmHg 87%
18:00 +26°C° 0.3 mm 2 mps 748 mmHg 90%
19:00 +25°C° 0.3 mm 2 mps 748 mmHg 92%
20:00 +25°C° 0 mm 1 mps 749 mmHg 92%
21:00 +25°C° 0 mm 1 mps 749 mmHg 92%
22:00 +25°C° 0 mm 1 mps 749 mmHg 92%
23:00 +25°C° 0 mm 1 mps 749 mmHg 91%

17 July, Friday

Time Temperature Precipitation Wind Pressure Humidity
00:00 +25°C° 0 mm 1 mps 748 mmHg 90%
01:00 +25°C° 0 mm 1 mps 748 mmHg 89%
02:00 +25°C° 0 mm 1 mps 748 mmHg 88%
03:00 +25°C° 0 mm 1 mps 748 mmHg 88%
04:00 +24°C° 0 mm 1 mps 748 mmHg 87%
05:00 +25°C° 0 mm 1 mps 748 mmHg 87%
06:00 +25°C° 0 mm 1 mps 748 mmHg 88%
07:00 +25°C° 0 mm 1 mps 748 mmHg 88%
08:00 +26°C° 0 mm 1 mps 749 mmHg 82%
09:00 +28°C° 0 mm 1 mps 750 mmHg 77%
10:00 +29°C° 0 mm 1 mps 750 mmHg 72%
11:00 +30°C° 0 mm 1 mps 750 mmHg 69%
12:00 +31°C° 0 mm 2 mps 749 mmHg 67%
13:00 +32°C° 0 mm 2 mps 749 mmHg 64%
14:00 +32°C° 0.9 mm 2 mps 748 mmHg 66%
15:00 +31°C° 0.9 mm 1 mps 748 mmHg 68%
16:00 +31°C° 0.9 mm 1 mps 747 mmHg 70%
17:00 +30°C° 0 mm 1 mps 747 mmHg 74%
18:00 +29°C° 0 mm 1 mps 747 mmHg 79%
19:00 +28°C° 0 mm 2 mps 747 mmHg 84%
20:00 +27°C° 0 mm 2 mps 748 mmHg 85%
21:00 +27°C° 0 mm 2 mps 748 mmHg 87%
22:00 +26°C° 0 mm 2 mps 749 mmHg 88%
23:00 +26°C° 0.2 mm 1 mps 749 mmHg 89%

18 July, Saturday

Time Temperature Precipitation Wind Pressure Humidity
00:00 +26°C° 0.2 mm 1 mps 749 mmHg 90%
01:00 +26°C° 0.2 mm 1 mps 749 mmHg 90%
02:00 +26°C° 0.1 mm 1 mps 748 mmHg 90%
03:00 +24°C° 0.1 mm 0 mps 748 mmHg 89%
04:00 +24°C° 0.1 mm 0 mps 748 mmHg 89%
05:00 +24°C° 0 mm 0 mps 748 mmHg 89%
06:00 +24°C° 0 mm 0 mps 748 mmHg 88%
07:00 +24°C° 0 mm 0 mps 748 mmHg 88%
08:00 +25°C° 0 mm 0 mps 749 mmHg 81%
09:00 +27°C° 0 mm 0 mps 749 mmHg 75%
10:00 +28°C° 0 mm 0 mps 749 mmHg 69%
11:00 +29°C° 0.2 mm 0 mps 749 mmHg 66%
12:00 +32°C° 0.2 mm 1 mps 748 mmHg 64%
13:00 +33°C° 0.2 mm 1 mps 748 mmHg 62%
14:00 +32°C° 0.7 mm 1 mps 748 mmHg 63%
15:00 +32°C° 0.7 mm 1 mps 747 mmHg 65%
16:00 +32°C° 0.7 mm 2 mps 747 mmHg 66%
17:00 +30°C° 2.1 mm 2 mps 747 mmHg 74%
18:00 +29°C° 2.1 mm 2 mps 747 mmHg 82%
19:00 +27°C° 2.1 mm 2 mps 747 mmHg 90%
20:00 +27°C° 0.2 mm 2 mps 748 mmHg 91%
21:00 +27°C° 0.2 mm 2 mps 748 mmHg 91%
22:00 +27°C° 0.2 mm 1 mps 749 mmHg 92%
23:00 +26°C° 0.1 mm 1 mps 749 mmHg 91%
Show more